Location: Bush Observatory
(40.2653°N, 94.3194°W)
Time: 18:36:07
(UTC-06:00)

Daily predictions for brighter satellites

Satellite Brightness Start Highest point End
(mag) Time Altitude Azimuth Time Altitude Azimuth Time Altitude Azimuth
BREEZE-M DEB (TANK) 2.4 17:11:23 10° NW 17:13:47 52° NNE 17:19:47 10° ESE
Cosmos 2369 4.4 17:12:26 10° SSE 17:17:32 35° ESE 17:22:40 10° NE
Cosmos 2278 4.5 17:13:06 10° SSE 17:18:08 34° ESE 17:23:12 10° NE
ATLAS 2AS CENTAUR R/B 3.2 17:10:58 10° SSW 17:18:43 87° WNW 17:26:55 10° NNE
ATLAS 3B R/B 2.8 17:13:16 10° NNW 17:19:49 52° NE 17:26:09 10° SE
MSX 4.2 17:15:43 10° S 17:21:28 75° WSW 17:27:17 10° NNW
IRAS Rocket 4.3 17:18:01 10° SSE 17:23:24 61° ENE 17:28:48 10° N
Cosmos 1536 Rocket 4.4 17:19:37 10° SSE 17:23:26 31° E 17:27:15 10° NNE
Hubble Space Telescope 3.4 17:21:26 10° SW 17:23:47 15° S 17:26:08 10° SSE
Meteor 1-28 Rocket 3.8 17:22:20 10° NNE 17:25:50 36° E 17:29:20 10° SSE
CZ-4 R/B 2.0 17:22:34 10° SE 17:26:01 32° ENE 17:29:32 10° N
CSL-04 Rocket 3.7 17:20:47 10° SSE 17:26:08 64° ENE 17:31:35 10° N
Cosmos 158 Rocket 4.3 17:21:47 10° N 17:26:35 40° ENE 17:31:14 10° SE
USA 215 3.3 17:26:31 10° ESE 17:33:01 73° NE 17:39:32 10° NW
Cosmos 1743 2.7 17:31:50 10° N 17:35:43 79° E 17:39:36 10° S
Cosmos 1697 Rocket 3.6 17:31:15 10° SSE 17:36:00 28° ESE 17:40:45 10° NE
NOSS 8 (A) 4.4 17:34:40 10° SSW 17:37:58 57° ESE 17:41:04 11° NE
Meteor 1-19 Rocket 4.2 17:34:36 10° S 17:40:15 76° E 17:46:03 10° NNE
NOSS 3-4 (A) 4.3 17:35:05 10° S 17:40:30 33° ESE 17:45:47 11° NE
NOSS 3-4 (C) 4.3 17:35:12 10° S 17:40:36 32° ESE 17:45:51 11° NE
Abrixas rocket 3.9 17:42:36 10° WNW 17:45:12 21° N 17:47:23 12° NE
Cosmos 2082 3.7 17:43:02 10° NNW 17:48:34 56° ENE 17:54:05 10° SE
PSLV R/B 3.0 17:45:46 10° W 17:48:57 88° NNW 17:51:14 17° E
ISS -3.2 17:49:45 10° WNW 17:53:00 58° SW 17:56:13 10° SE
Landsat 4 4.2 17:50:19 10° NNE 17:53:56 39° E 17:57:31 10° S
Cosmos 2266 Rocket 4.0 17:49:16 10° N 17:55:17 60° E 18:01:23 10° SSE
ERS-2 3.0 17:53:37 10° SE 17:56:43 27° ENE 17:59:50 10° N
BREEZE-M DEB (TANK) 4.2 17:55:49 10° NW 17:58:30 34° NNE 18:02:42 15° E
CENTAUR R/B 3.9 17:53:06 10° NNW 17:59:32 27° NE 18:04:35 16° E
SPOT 3 Rocket 4.1 17:55:26 10° SE 18:00:03 34° ENE 18:04:41 10° N
Cosmos 2227 Rocket 2.2 17:54:39 10° NNW 18:00:22 88° ENE 18:06:01 10° SSE
Cosmos 1455 Rocket 3.4 17:56:03 10° NNW 18:00:27 69° W 18:04:48 10° S
CORIOLIS 4.3 17:58:19 10° SSE 18:03:44 83° WSW 18:09:10 10° NNW
Cosmos 1544 Rocket 4.3 18:00:27 10° NNW 18:04:43 56° W 18:08:56 10° S
Cosmos 1271 Rocket 4.0 18:02:26 10° NNW 18:06:04 42° W 18:09:43 10° SSW
Ariane Rocket 3.6 18:03:31 10° S 18:08:30 60° W 18:13:30 10° NNW
YAOGAN 1 2.4 18:05:09 10° SSE 18:09:27 75° ENE 18:13:48 10° N
USA 116 3.2 18:07:33 10° N 18:10:43 78° WNW 18:13:48 10° SSW
CZ-4 R/B 4.3 18:07:14 10° SSE 18:11:21 73° ENE 18:15:29 10° N
Meteor 2-9 Rocket 4.2 18:07:37 10° N 18:13:08 84° W 18:18:29 10° S
MOS 1 4.3 18:07:35 10° SSE 18:13:08 59° ENE 18:18:43 10° N
Cosmos 1980 Rocket 2.8 18:11:47 10° S 18:16:54 36° ESE 18:19:35 24° ENE
Meteor 1-23 Rocket 4.2 18:12:34 10° S 18:18:18 75° E 18:24:00 10° NNE
Cosmos 1269 Rocket 3.9 18:15:09 10° NNW 18:20:29 78° ENE 18:25:46 10° SSE
Cosmos 1125 Rocket 3.9 18:16:24 10° SSW 18:21:41 67° WNW 18:26:58 10° NNE
COSMO-SKYMED 1 2.5 18:21:52 10° NNE 18:26:14 84° ESE 18:30:34 10° SSW
Cosmos 2297 Rocket 2.6 18:21:18 10° NNW 18:26:55 67° WSW 18:32:30 10° S
USA 238 DEB 4.4 18:20:45 10° NW 18:27:45 61° WSW 18:34:48 10° SSE
USA 238 4.3 18:20:51 10° NW 18:27:51 61° WSW 18:34:54 10° SSE
CZ-2C R/B 4.4 18:23:53 10° N 18:28:30 57° WNW 18:33:08 10° SSW
Atlas Centaur 2 4.1 18:25:13 10° WSW 18:28:51 18° SSW 18:32:01 10° SSE
MONITOR-E 3.9 18:26:21 10° SSE 18:29:23 81° ENE 18:32:27 10° N
Gblst 52 Del rocket 4.4 18:24:34 10° NW 18:30:07 54° NNE 18:33:02 29° E
SJ 16-02 2.2 18:26:30 10° SW 18:30:45 49° WNW 18:35:02 10° N
Cosmos 1048 Rocket 4.4 18:25:29 10° NNW 18:30:51 70° WSW 18:36:09 10° S
Cosmos 1656 4.0 18:25:58 10° SSW 18:31:30 64° WNW 18:36:33 12° NNE
RESURS DK-1 3.3 18:41:28 10° S 18:44:18 33° SE 18:44:18 33° SE
Meteor 2-11 Rocket 4.4 18:41:46 10° S 18:47:55 88° E 18:54:06 10° N
Cosmos 1553 Rocket 4.2 18:43:37 10° SSE 18:49:45 50° E 18:52:38 30° NNE
Cosmos 1417 Rocket 4.4 18:46:52 10° S 18:52:53 61° E 18:56:48 23° NNE
Okean 1-7 Rocket 3.4 18:48:33 10° S 18:52:57 86° E 18:54:16 45° NNE
SL-24 R/B - RUBIN 2 4.2 18:47:24 10° SSW 18:53:40 84° ESE 18:55:53 40° NE
NOAA 12 4.1 18:48:38 10° S 18:53:54 80° WSW 18:59:11 10° NNW
Cosmos 1025 Rocket 3.3 18:50:16 10° SSW 18:54:32 67° W 18:56:56 25° N
ALOS 2.5 18:49:58 10° S 18:54:37 70° W 18:59:17 10° NNW
NOSS 3-2 (A) 4.3 18:49:03 10° NW 18:56:40 71° WSW 19:04:51 10° SSE
SL-16 R/B 3.9 18:53:40 10° SSE 18:55:26 18° SE 18:55:26 18° SE
DELTA 2 R/B (1) 3.6 18:53:49 10° W 18:59:23 74° SSW 19:00:47 51° ESE
CZ-4 R/B 4.3 18:58:32 10° SW 19:01:09 17° W 19:03:47 10° NW
Cosmos 2263 Rocket 4.3 18:59:01 10° N 18:59:25 12° N 18:59:25 12° N
Cosmos 2322 Rocket 3.9 18:58:40 10° SSE 19:00:14 17° SSE 19:00:14 17° SSE
FENGYUN 3A 4.0 18:58:10 10° S 19:03:30 65° W 19:08:51 10° NNW
NOSS 3-2 (C) 4.1 18:56:44 10° NW 19:04:23 81° WSW 19:12:40 10° SSE
Cosmos 2360 4.1 18:59:46 10° SSW 19:05:29 85° ESE 19:07:03 50° NNE
Cosmos 2084 3.9 19:05:20 10° SW 19:09:21 53° WNW 19:09:21 53° WNW
ATLAS 3B R/B 4.4 19:04:33 10° NW 19:10:07 29° WSW 19:15:36 10° SSW
Cosmos 1697 Rocket 3.8 19:14:29 10° SW 19:19:45 40° WNW 19:22:52 22° N
DNEPR-1 R/B 4.1 19:14:57 10° NNW 19:20:11 88° NE 19:20:49 73° SE
NOSS 3-4 (A) 4.3 19:25:14 10° WSW 19:31:10 45° NW 19:33:16 34° N
NOSS 3-4 (C) 4.3 19:25:19 10° WSW 19:31:16 46° NW 19:33:20 35° N
CENTAUR R/B 3.0 19:43:15 10° NW 19:51:17 89° ENE 19:51:52 80° SE
Cosmos 1980 Rocket 3.6 19:55:51 10° WSW 20:00:54 32° WNW 20:01:24 32° NW
